This is the latest recevied weather packets stored in our database for station/object KM6YFK-13. If no packets are shown the sender has not sent any weather packets the latest 10 day(s).
| Time | Temp. | Humidity | Pressure | Rain* | Wind** | Luminosity | Snow |
|---|---|---|---|---|---|---|---|
| 1777645409 | 25.56° C | 71% | 1012.5 hPa | 0 mm | - | 672 W/m² | - |
| 1777645108 | 25.56° C | 75% | 1012.5 hPa | 0 mm | - | 718 W/m² | - |
| 1777644808 | 25.56° C | 77% | 1012.4 hPa | 0 mm | - | 571 W/m² | - |
| 1777644508 | 25° C | 77% | 1012.4 hPa | 0 mm | - | 799 W/m² | - |
| 1777644209 | 24.44° C | 76% | 1012.3 hPa | 0 mm | - | 192 W/m² | - |
| 1777643908 | 24.44° C | 75% | 1012.4 hPa | 0 mm | - | 179 W/m² | - |
| 1777643609 | 24.44° C | 77% | 1012.3 hPa | 0 mm | - | 184 W/m² | - |
| 1777643308 | 25° C | 78% | 1012.3 hPa | 0 mm | - | 569 W/m² | - |
| 1777643007 | 24.44° C | 80% | 1012.4 hPa | 0 mm | - | 649 W/m² | - |
| 1777642708 | 24.44° C | 79% | 1012.5 hPa | 0 mm | - | 535 W/m² | - |
| 1777642408 | 23.89° C | 82% | 1012.5 hPa | 0 mm | - | 504 W/m² | - |
| 1777642108 | 23.89° C | 83% | 1012.4 hPa | 0 mm | - | 513 W/m² | - |
| 1777641808 | 23.89° C | 84% | 1012.4 hPa | 0 mm | - | 476 W/m² | - |
| 1777641508 | 23.33° C | 84% | 1012.4 hPa | 0 mm | - | 441 W/m² | - |
| 1777641208 | 23.33° C | 85% | 1012.3 hPa | 0 mm | - | 296 W/m² | - |
| 1777640908 | 23.33° C | 85% | 1012.4 hPa | 0 mm | - | 371 W/m² | - |
| 1777640607 | 23.33° C | 88% | 1012.3 hPa | 0 mm | - | 371 W/m² | - |
| 1777640309 | 22.78° C | 90% | 1012.3 hPa | 0 mm | - | 443 W/m² | - |
| 1777640007 | 22.78° C | 92% | 1012.2 hPa | 0 mm | - | 385 W/m² | - |
| 1777639709 | 22.78° C | 93% | 1012.2 hPa | 0 mm | - | 352 W/m² | - |
| 1777639408 | 22.22° C | 94% | 1012.1 hPa | 0 mm | - | 219 W/m² | - |
| 1777639108 | 22.22° C | 95% | 1012.1 hPa | 0 mm | - | 132 W/m² | - |
| 1777638808 | 22.22° C | 96% | 1012.1 hPa | 0 mm | - | 143 W/m² | - |
| 1777638507 | 22.22° C | 96% | 1012.2 hPa | 0 mm | - | 149 W/m² | - |
| 1777638209 | 22.22° C | 97% | 1012.1 hPa | 0 mm | - | 141 W/m² | - |
* Rain latest hour (hover to see other rain measurements)
** Current wind speed in m/s (hover to see current wind gust speed)